Location: Kings Park
(40.8862°N, 73.2573°W)
Time: 05:09:03
(UTC+00:00)

Meteor 2-10 Rocket - Pass Details

Date: 29 October 2020
Orbit: 734 x 885 km, 81.2° (Epoch: 29 November)

Event Time Altitude Azimuth Distance (km) Brightness Sun altitude
Rises 22:49:44 0° 175° (S) 3,310 6.8 -11.4°
Reaches altitude 10° 22:52:11 10° 171° (S) 2,360 6.0 -11.9°
Maximum altitude 22:57:20 54° 95° (E) 939 3.6 -12.9°
Drops below altitude 10° 23:02:20 10° 19° (NNE) 2,289 5.7 -13.8°
Sets 23:04:41 0° 15° (NNE) 3,202 6.5 -14.2°
